Regional Weather Roundup
Issued by NWS

Home | Current Version | Previous Version | Graphics & Text | Print | Product List | Glossary On
Versions: 1 2 3 4 5 6 7 8 9 10 11 12 13 14 15 16 17 18 19 20 21 22 23 24 25 26 27 28 29 30 31 32 33 34 35 36 37 38 39 40 41 42 43 44 45 46 47 48 49 50
000
ASUS45 KPSR 191100
RWRAZ

ARIZONA REGIONAL HOURLY WEATHER ROUNDUP
NATIONAL WEATHER SERVICE PHOENIX AZ
400 AM MST SUN APR 19 2015

NOTE: FAIR INDICATES FEW OR NO CLOUDS BELOW 12,000 FEET WITH NO
SIGNIFICANT WEATHER AND/OR OBSTRUCTIONS TO VISIBILITY.

AZZ001>003-036-191200-
NORTHWEST ARIZONA

CITY           SKY/WX    TMP DP  RH WIND       PRES   REMARKS
KINGMAN        CLEAR     50  14  23 SE10      29.96S
$$

AZZ004>008-015-016-018-191200-
NORTH CENTRAL ARIZONA

CITY           SKY/WX    TMP DP  RH WIND       PRES   REMARKS
GRAND CANYON   CLOUDY    33  17  51 CALM      30.12R
WILLIAMS       CLEAR     32  16  51 S10       30.17S WCI  24
PRESCOTT       CLEAR     45  17  32 S7        30.05R
FLAGSTAFF      NOT AVBL
PAYSON         CLEAR     50  16  25 CALM      30.05F
PAGE           PTCLDY    55  26  32 E3        30.03S
$$

AZZ009>014-017-191200-
NORTHEAST ARIZONA

CITY           SKY/WX    TMP DP  RH WIND       PRES   REMARKS
WINSLOW        NOT AVBL
SAINT JOHNS    PTCLDY    36  16  44 CALM      30.05R
WINDOW ROCK    CLEAR     33  24  69 CALM      30.09R
SHOW LOW       CLEAR     36  14  41 S7        30.10R WCI  30
$$

AZZ023-191200-
GREATER PHOENIX AREA

CITY           SKY/WX    TMP DP  RH WIND       PRES   REMARKS
PHOENIX        CLEAR     67  28  23 E5        29.87R
DEER VALLEY    CLEAR     57  21  24 CALM      29.89R
SCOTTSDALE     CLEAR     65  26  23 CALM      29.91R
$$

AZZ027-028-191200-
SOUTHWEST MARICOPA COUNTY AND PINAL COUNTY

CITY           SKY/WX    TMP DP  RH WIND       PRES   REMARKS
CASA GRANDE    CLEAR     55  23  28 NE3       29.89F
$$

AZZ503-504-507>509-191200-
SOUTHEAST ARIZONA

CITY           SKY/WX    TMP DP  RH WIND       PRES   REMARKS
TUCSON         CLEAR     56  22  26 SE10      29.98F
NOGALES        CLEAR     46  24  42 CALM      30.02S
SAFFORD        CLEAR     49  16  26 E6        29.95R
$$

AZZ020-021-025-026-031-191200-
SOUTHWEST ARIZONA

CITY           SKY/WX    TMP DP  RH WIND       PRES   REMARKS
YUMA           NOT AVBL
$$

CAZ031-033-041-043-047-048-061-191200-
SOUTHERN CALIFORNIA

CITY           SKY/WX    TMP DP  RH WIND       PRES   REMARKS
DOWNTOWN L.A.  CLEAR     57  52  83 CALM      29.94F
L.A. AIRPORT   PTCLDY    57  54  89 CALM      29.95S
SAN DIEGO      CLOUDY    62  55  77 NW3       29.96F
BURBANK        CLEAR     56  41  57 CALM      29.94S
ONTARIO        PTCLDY    57  51  80 CALM      29.95S
RIVERSIDE      CLEAR     56  46  69 CALM      29.95F
PALM SPRINGS   CLEAR     69  36  29 CALM      29.85F
EL CENTRO NAS  CLEAR     63  24  22 W5        29.82S
IMPERIAL       CLEAR     63  29  27 W5        29.82S
BLYTHE         CLEAR     68  30  24 CALM      29.83S
$$

NVZ020-UTZ003-191200-
SOUTHERN NEVADA-UTAH

CITY           SKY/WX    TMP DP  RH WIND       PRES   REMARKS
LAS VEGAS      NOT AVBL
SALT LAKE CITY CLEAR     46  34  62 SE5       30.05R
$$

NMZ009-TXZ055-191200-
NEW MEXICO-WEST TEXAS

CITY           SKY/WX    TMP DP  RH WIND       PRES   REMARKS
ALBUQUERQUE    PTCLDY    48  31  51 NW15      30.00S
EL PASO        PTCLDY    64  17  16 W14       29.93S
$$


........................KEY........................
SKY/WX - SKY CONDITION/WEATHER
TMP    - TEMPERATURE IN FAHRENHEIT
DP     - DEW POINT IN FAHRENHEIT
RH     - RELATIVE HUMIDITY IN PERCENT
WIND   - DIRECTION AND SPEED IN MILES PER HOUR (MPH)
VRB    - VARIABLE WIND DIRECTION
PRES   - MEAN SEA LEVEL PRESSURE IN INCHES OF MERCURY
         F - FALLING PRESSURE   R - RISING PRESSURE
         S - STEADY PRESSURE
VSB    - VISIBILITY IN MILES
HX     - HEAT INDEX IN FAHRENHEIT
WCI    - WIND CHILL INDEX IN FAHRENHEIT
TC     - TEMPERATURE IN CELSIUS WHICH IS ALSO KNOWN AS
         TEMPERATURE IN CENTIGRADE
AFB    - AIR FORCE BASE
         LUKE AFB IS LUKE AIR FORCE BASE
         DAVIS-MONTHAN IS DAVIS-MONTHAN AIR FORCE BASE
NAS    - NAVAL AIR STATION
         EL CENTRO NAS IS EL CENTRO NAVAL AIR STATION
N/A    - NOT AVAILABLE



USA.gov is the U.S. government's official web portal to all federal, state and local government web resources and services.